Port Angeles, WA
on Wednesday, January 2, 2013

Wednesday
Previous Day Next Day
Daily Summary
 ActualAverageRecord
Temperature
Mean Temperature °F °F  
Max Temperature 43°F 44°F 57°F (2002)
Min Temperature 30°F 32°F 13°F (1950)
Degree Days
Heating Degree Days 28    
Moisture
Dew Point 31°F   
Average Humidity 86    
Maximum Humidity 96    
Minimum Humidity 60    
Precipitation
Precipitation 0.00 in in in ()
Wind
Wind Speed 4 mph   
Max Wind Speed 7 mph   
Max Gust Speed mph   
Visibility 10 miles   
Events     
Averages and records for this station are not official NWS values.
Key: T is trace of precipitation, MM is missing value
Source: NWS Daily Summary
Seasonal Weather Averages
Time(PST)TemperatureDew PointHumidity Pressure Visibility Wind DirectionWind SpeedGust SpeedPrecipitationEvents Conditions
12:53 AM 35.1°F 32.0°F 89% 30.34 in 10.0 miles SE 4.6 mph - N/A   Mostly Cloudy
1:53 AM 37.0°F 32.0°F 82% 30.33 in 10.0 miles SE 5.8 mph - N/A   Overcast
2:43 AM 35.1°F 30.9°F 85% 30.32 in 10.0 miles SE 4.6 mph - N/A   Scattered Clouds
2:53 AM 36.0°F 32.0°F 86% 30.33 in 10.0 miles ESE 4.6 mph - N/A   Mostly Cloudy
3:24 AM 35.1°F 30.9°F 85% 30.32 in 10.0 miles SSE 4.6 mph - N/A   Partly Cloudy
3:53 AM 33.8°F 30.2°F 87% 30.31 in 10.0 miles SSE 4.6 mph - N/A   Scattered Clouds
4:53 AM 32.0°F 30.0°F 92% 30.31 in 10.0 miles SSE 4.6 mph - N/A   Clear
5:53 AM 32.0°F 30.9°F 96% 30.30 in 9.0 miles South 3.5 mph - N/A   Mostly Cloudy
6:01 AM 30.0°F 28.9°F 96% 30.29 in 9.0 miles SE 3.5 mph - N/A   Scattered Clouds
6:53 AM 32.0°F 30.2°F 93% 30.29 in 10.0 miles SE 4.6 mph - N/A   Clear
7:53 AM 30.9°F 28.9°F 92% 30.29 in 10.0 miles SSE 5.8 mph - N/A   Clear
8:53 AM 33.1°F 30.9°F 92% 30.29 in 10.0 miles North - - N/A   Clear
9:53 AM 36.0°F 33.1°F 89% 30.30 in 10.0 miles SE 5.8 mph - N/A   Clear
10:53 AM 39.9°F 33.1°F 77% 30.28 in 10.0 miles East 6.9 mph - N/A   Clear
11:53 AM 42.1°F 33.1°F 70% 30.28 in 10.0 miles East 5.8 mph - N/A   Clear
12:53 PM 43.0°F 33.1°F 68% 30.27 in 10.0 miles ENE 3.5 mph - N/A   Partly Cloudy
1:53 PM 43.0°F 32.0°F 65% 30.26 in 10.0 miles Calm Calm - N/A   Clear
2:53 PM 43.0°F 30.0°F 60% 30.26 in 10.0 miles Calm Calm - N/A   Clear
3:53 PM 37.9°F 32.0°F 79% 30.26 in 10.0 miles SW 4.6 mph - N/A   Clear
4:53 PM 36.0°F 32.0°F 86% 30.25 in 10.0 miles Calm Calm - N/A   Partly Cloudy
5:53 PM 32.0°F 30.0°F 92% 30.24 in 10.0 miles SW 5.8 mph - N/A   Clear
6:53 PM 30.0°F 27.0°F 88% 30.23 in 10.0 miles Calm Calm - N/A   Clear
7:53 PM 30.0°F 28.0°F 92% 30.22 in 10.0 miles Calm Calm - N/A   Clear
8:53 PM 30.0°F 27.0°F 88% 30.20 in 8.0 miles Calm Calm - N/A   Clear
9:53 PM 33.1°F 30.9°F 92% 30.21 in 10.0 miles North - - N/A   Clear
10:53 PM 32.0°F 30.0°F 92% 30.21 in 10.0 miles North - - N/A   Clear
11:53 PM 30.9°F 30.0°F 96% 30.20 in 10.0 miles North - - N/A   Clear
Moon Phase
Jan. 02 Jan. 04 Jan. 11 Jan. 18 Jan. 26
Sunrise:08:04 AM (PST) Moon Rise:10:39 PM (PST)1/2
Sunset:04:32 PM (PST) Moon Set:10:22 AM (PST)1/2

Copyright © 2014 The Weather Underground, Inc.